Fairfield, IL

10:37 AM CST on February 06, 2016 (GMT -0600)
Uptown | | Change Station
CLOSE
Current Station
Personal Weather Station
Location: Fairfield, IL
Elevation: 446 ft
Nearby Weather Stations

Elev 446 ft 38.38 °N, 88.36 °W | Updated 7 minutes ago

Clear
Clear
41.6 °F
Feels Like 40 °F
N
3.2
Wind Variable Wind from South

Today
High -- | Low -- °F
--% Chance of Precip.
Yesterday
High -- | Low -- °F
Precip. -- in
Pressure 30.35 in
Visibility 10.0 miles
Clouds Clear
Windchill 40 °F
Dew Point 28 °F
Humidity 57%
Rainfall 0.00 in
Snow Depth Not available.
6:54 AM 5:21 PM
Waning Crescent, 5% visible
METAR KFWC 061535Z AUTO 00000KT 10SM CLR 02/M03 A3035 RMK AO1 T00221026
Pressure 30.35 in
Visibility 10.0 miles
Clouds Clear
Windchill 40 °F
Dew Point 28 °F
Humidity 57%
Rainfall 0.00 in
Snow Depth Not available.
6:54 AM 5:21 PM
Waning Crescent, 5% visible
METAR KFWC 061535Z AUTO 00000KT 10SM CLR 02/M03 A3035 RMK AO1 T00221026

10-Day Weather Forecast

Almanac

Astronomy

Feb. 06, 2016 Rise Set
Actual Time
Civil Twilight
Nautical Twilight
Astronomical Twilight
Moon
Length of Visible Light
Length of Day
Tomorrow will be .
, % of the Moon is Illuminated

Today's Extremes

State Highs State Lows

Community

WunderPhotos

Upload Photos

1,891,015 photos uploaded!

WunderBlog® & News

Nearby

Air Quality

  Air Quality AQ Index Pollutant
Not available.

Snow Depth

Station Depth Elevation

Earthquake Activity

City Distance Mag. Time & Date
Minimum magnitude displayed is 2.5.

Coastal Water Temperatures

Place Temperature

Stations

Nearby Weather Stations

Station Location Temp. Windchill Dew Point Humidity Wind Precip. Elev Updated Type
                   

Watches & Warnings

There are currently no watches in effect.